User: anonymous   Login
Location: Gu�tanj
(46.5431°N, 14.9692°E)
Time: 21:24:41
(UTC+00:00)
Language:

ASTEX 1 - Orbit

View from above orbital plane
View from above orbital plane
View from above satellite
View from above satellite

Ground track
Ground track

The orbit data is extracted from the following two-line orbital elements,

1 05560U 71089A   21134.85600336  .00000078  00000-0  21301-4 0  9999
2 05560  92.7146 303.6589 0014009 251.8882 108.0797 14.48129581607489
Epoch (UTC): 14 May 2021 20:32:38
Eccentricity: 0.0014009
inclination: 92.7146°
perigee height: 722 km
apogee height: 742 km
right ascension of ascending node: 303.6589°
argument of perigee: 251.8882°
revolutions per day: 14.48129581
mean anomaly at epoch: 108.0797°
orbit number at epoch: 60748

The dashed part of the orbit path shows where the satellite is in the earth's shadow,  

DLR